#timestamp,LO_Frequency,Hit,StdDev 
1457787615.1,286047002.9,N
1457787635.8,286047001.3,N
1457787655.7,286046998.9,N
1457787675.5,286047003.2,N
1457787695.3,286047006.3,N
1457787715.2,286047008.5,Y
1457787735.9,286047008.5,P
1457787755.7,286047009.3,N
1457787775.6,286047012.9,P
1457787795.4,286047013.2,Y
1457787815.2,286047005.9,P
1457787835.1,286047002.9,N
1457787836.0,286047002.9,N
1457787855.8,286047003.8,N
1457787875.6,286047001.5,N
1457787895.5,286047005.1,N
1457787915.3,286047005.3,N
1457787935.1,286047005.9,N
1457787955.9,286047005.3,N
1457787975.7,286047007.1,Y
1457787995.5,286047003.4,P
1457788015.4,286047003.4,P
1457788035.2,286047004.1,P
1457788055.0,286047001.6,N
1457788055.9,286047001.6,N
1457788075.8,286047004.3,Y
1457788095.6,286046998.9,P
1457788115.4,286046995.2,N
1457788135.3,286046998.0,N
1457788155.1,286046995.4,N
1457788156.0,286046995.4,N
1457788175.8,286046990.4,Y
1457788195.7,286046992.5,P
1457788215.5,286046997.6,N
1457788235.3,286046997.0,N
1457788255.2,286046997.7,N
1457788275.9,286046996.9,N
1457788295.7,286046999.0,N
1457788315.5,286046998.1,N
1457788335.4,286047000.5,N
1457788355.2,286047001.3,N
1457788375.0,286047000.9,N
1457788375.9,286047000.9,N
1457788395.8,286047002.7,N
1457788415.6,286047003.5,N
1457788435.4,286047007.3,N
1457788455.3,286047007.2,N
1457788475.1,286047007.4,N
1457788476.0,286047007.4,N
1457788495.8,286047009.2,N
1457788515.7,286047007.5,N
1457788535.5,286047005.2,N
1457788555.3,286047007.1,N
1457788575.1,286047006.0,N
1457788595.9,286047006.8,N
1457788615.7,286047010.2,N
1457788635.5,286047014.0,N
1457788655.4,286047008.0,N
1457788675.2,286047008.4,N
1457788695.0,286047010.2,N
1457788695.9,286047010.2,N
1457788715.8,286047009.1,N
1457788735.6,286047012.2,N
1457788755.4,286047014.0,N
1457788775.3,286047009.5,N
1457788795.1,286047012.1,N
1457788796.0,286047012.1,N
1457788815.8,286047012.6,N
1457788835.7,286047013.0,Y
1457788855.5,286047006.7,P
1457788875.3,286047005.9,P
1457788895.2,286047004.3,P
1457788915.9,286047004.2,Y
1457788935.7,286046995.2,P
1457788955.6,286046998.7,N
1457788975.4,286046997.4,N
1457788995.2,286046997.7,N
1457789015.1,286046999.1,N
1457789016.0,286046999.1,N
1457789035.8,286046993.8,N
1457789055.6,286046992.3,N
1457789075.4,286046991.6,N
1457789095.3,286046994.1,N
1457789115.1,286046993.4,N
1457789135.8,286046993.8,N
1457789155.7,286046992.7,N
1457789175.5,286046990.8,N
1457789195.3,286046991.0,N
1457789215.2,286046992.8,N
1457789235.9,286046992.9,N
1457789255.7,286046988.8,N
1457789275.6,286046991.9,N
1457789295.4,286046991.8,N
1457789315.2,286046990.2,N
1457789335.1,286046996.0,N
1457789336.0,286046996.0,N
1457789355.8,286046997.2,N
1457789375.6,286046995.4,N
1457789395.4,286046995.8,N
1457789415.3,286046999.6,N
1457789435.1,286046997.7,N
1457789455.8,286046994.2,N
1457789475.7,286046993.2,N
1457789495.5,286046994.6,N
1457789515.3,286046995.8,N
1457789535.2,286046991.7,Y
1457789555.0,286046997.7,P
1457789555.9,286046997.7,N
1457789575.7,286046996.1,N
1457789595.6,286046994.3,Y
1457789615.4,286046994.9,P
1457789635.2,286046995.1,P
1457789655.1,286046998.8,N
1457789656.0,286046998.8,N
1457789675.8,286046997.4,N
1457789695.6,286046995.5,N
1457789715.5,286046995.9,N
1457789735.3,286046998.0,N
1457789755.1,286046993.7,Y
1457789775.9,286046997.3,P
1457789795.7,286046997.4,P
1457789815.5,286046994.9,P
1457789835.4,286046998.3,N
1457789855.2,286046996.6,Y
1457789875.0,286047004.1,P
1457789875.9,286047004.1,N
1457789895.8,286047006.0,N
1457789915.6,286047007.3,N
1457789935.4,286047006.8,N
1457789955.3,286047009.1,N
1457789975.1,286047009.2,N
1457789976.0,286047009.2,N
1457789995.8,286047007.0,N
1457790015.7,286047008.5,N
1457790035.5,286047008.7,N
1457790055.3,286047007.3,N
1457790075.1,286047009.2,N
1457790095.9,286047008.7,N
1457790115.7,286047009.4,Y
1457790135.5,286047001.9,P
1457790155.4,286046998.6,N
1457790175.2,286047000.6,N
1457790195.0,286046998.3,N
1457790195.9,286046998.3,N
1457790215.8,286046997.1,N
1457790235.6,286046996.2,N
1457790255.4,286046996.7,N
1457790275.3,286046993.7,N
1457790295.1,286046997.4,N
1457790296.0,286046997.4,N
1457790315.8,286046996.3,N
1457790335.7,286046994.1,N
1457790355.5,286046996.1,N
1457790375.3,286046995.3,N
1457790395.2,286046994.9,N
1457790415.9,286046995.8,N
1457790435.7,286046998.9,N
1457790455.5,286047001.2,N
1457790475.4,286046999.1,N
1457790495.2,286046998.8,N
1457790515.0,286047002.6,N
1457790515.9,286047002.6,N
1457790535.8,286047000.3,N
1457790555.6,286046999.4,N
1457790575.4,286046998.7,N
1457790595.3,286047002.1,N
1457790615.1,286047000.1,N
1457790616.0,286047000.1,N
1457790635.8,286047001.5,N
1457790655.7,286047004.5,N
1457790675.5,286047004.1,N
1457790695.3,286047004.0,N
1457790715.2,286047005.8,N
1457790735.9,286047003.7,N
1457790755.7,286047003.2,N
1457790775.6,286047003.1,N
1457790795.4,286047002.2,N
1457790815.2,286047000.6,N
1457790835.0,286047002.0,N
1457790835.9,286047002.0,N
1457790855.8,286047002.5,N
1457790875.6,286046999.8,N
1457790895.4,286047004.2,N
1457790915.3,286047005.0,N
1457790935.1,286047003.6,N
1457790955.8,286047001.7,N
1457790975.7,286047005.9,N
1457790995.5,286047003.5,N
1457791015.3,286047003.6,N
1457791035.2,286047005.9,Y
1457791055.9,286046998.8,P
1457791075.7,286047000.4,N
1457791095.6,286046999.4,N
1457791115.4,286046996.6,N
1457791135.2,286047000.7,N
1457791155.1,286046998.2,N
1457791156.0,286046998.2,N
1457791175.8,286046998.1,N
1457791195.6,286047000.3,N
